N4MGC Weather Reports


Display with metric or nautical units.
time (UTC)temp
F
wind
direction
speed
MPH
gust
MPH
rain 1hr
in
rain 24hr
in
rain mn
in
humidity
%
barometer
mb
20260504231549 75 195 0.0 1.0 0.00 0.00 0.00 48 1012.3
20260504231045 76 183 0.0 0.0 0.00 0.00 0.00 47 1012.3
20260504230542 76 188 3.0 5.0 0.00 0.00 0.00 46 1012.4
20260504230041 76 186 0.0 0.0 0.00 0.00 0.00 47 1012.5
20260504225538 76 189 2.0 5.0 0.00 0.00 0.00 45 1012.6
20260504225035 77 161 1.0 2.0 0.00 0.00 0.00 45 1012.5
20260504224531 77 190 0.0 0.0 0.00 0.00 0.00 47 1012.6
20260504224029 77 178 0.0 0.0 0.00 0.00 0.00 44 1012.6
20260504223525 77 201 0.0 0.0 0.00 0.00 0.00 44 1012.9
20260504223021 78 196 3.0 5.0 0.00 0.00 0.00 43 1012.7
20260504222518 78 176 0.0 0.0 0.00 0.00 0.00 44 1012.9
20260504222016 79 188 2.0 2.0 0.00 0.00 0.00 41 1012.9
20260504221513 79 196 0.0 0.0 0.00 0.00 0.00 41 1012.8
20260504221010 79 195 0.0 0.0 0.00 0.00 0.00 43 1013.0
20260504220506 78 201 1.0 1.0 0.00 0.00 0.00 42 1013.1
20260504220003 78 188 0.0 0.0 0.00 0.00 0.00 42 1013.0
20260504215459 79 191 3.0 3.0 0.00 0.00 0.00 40 1012.9
20260504214956 80 201 1.0 3.0 0.00 0.00 0.00 40 1012.9
20260504214453 79 141 1.0 1.0 0.00 0.00 0.00 41 1012.9
20260504213949 80 196 0.0 1.0 0.00 0.00 0.00 42 1013.1
20260504213445 80 175 0.0 0.0 0.00 0.00 0.00 42 1012.9
20260504212943 79 197 0.0 0.0 0.00 0.00 0.00 42 1013.0
20260504212438 80 240 2.0 5.0 0.00 0.00 0.00 43 1013.2
20260504211937 80 222 0.0 0.0 0.00 0.00 0.00 42 1013.1
20260504211433 80 134 0.0 0.0 0.00 0.00 0.00 41 1013.3
20260504210931 80 241 1.0 2.0 0.00 0.00 0.00 40 1013.4
20260504210427 79 172 0.0 0.0 0.00 0.00 0.00 41 1013.5
20260504205924 79 186 0.0 1.0 0.00 0.00 0.00 41 1013.4
20260504205422 79 204 0.0 0.0 0.00 0.00 0.00 42 1013.5
20260504204920 79 125 0.0 0.0 0.00 0.00 0.00 43 1013.7
20260504204418 79 211 3.0 5.0 0.00 0.00 0.00 44 1013.5
20260504203917 79 153 1.0 2.0 0.00 0.00 0.00 43 1013.6
20260504203414 80 346 0.0 1.0 0.00 0.00 0.00 43 1013.5
20260504202909 79 195 1.0 3.0 0.00 0.00 0.00 44 1013.4
20260504202406 81 193 0.0 0.0 0.00 0.00 0.00 41 1013.8
20260504201903 80 122 0.0 0.0 0.00 0.00 0.00 48 1013.7
20260504201401 80 289 3.0 5.0 0.00 0.00 0.00 42 1013.9
20260504200858 81 248 2.0 3.0 0.00 0.00 0.00 42 1013.9
20260504200354 81 186 0.0 1.0 0.00 0.00 0.00 43 1013.6
20260504195851 80 297 1.0 1.0 0.00 0.00 0.00 46 1013.7
20260504195346 80 206 0.0 1.0 0.00 0.00 0.00 44 1013.6
20260504194843 79 210 0.0 1.0 0.00 0.00 0.00 46 1013.9
20260504194339 78 210 0.0 0.0 0.00 0.00 0.00 46 1014.1
20260504193836 80 217 1.0 2.0 0.00 0.00 0.00 45 1014.1
20260504193333 80 190 0.0 1.0 0.00 0.00 0.00 43 1014.2
20260504192832 79 214 0.0 0.0 0.00 0.00 0.00 44 1014.2
20260504192329 79 174 1.0 3.0 0.00 0.00 0.00 49 1014.3
20260504191827 79 247 2.0 2.0 0.00 0.00 0.00 45 1014.5
20260504191325 80 299 1.0 3.0 0.00 0.00 0.00 42 1014.6
20260504190820 79 193 0.0 0.0 0.00 0.00 0.00 48 1014.7
20260504190316 79 207 1.0 2.0 0.00 0.00 0.00 48 1014.6
20260504185813 79 194 1.0 2.0 0.00 0.00 0.00 45 1014.7
20260504185310 80 204 0.0 1.0 0.00 0.00 0.00 49 1014.6
20260504184806 79 182 0.0 0.0 0.00 0.00 0.00 44 1014.5
20260504184302 78 236 0.0 0.0 0.00 0.00 0.00 44 1014.6
20260504183758 80 212 1.0 1.0 0.00 0.00 0.00 46 1014.8
20260504183255 79 120 0.0 0.0 0.00 0.00 0.00 48 1014.9
20260504182753 80 182 0.0 0.0 0.00 0.00 0.00 45 1015.0
20260504182250 80 206 0.0 0.0 0.00 0.00 0.00 49 1014.9
20260504181748 78 205 0.0 0.0 0.00 0.00 0.00 52 1014.9
20260504181245 78 262 0.0 0.0 0.00 0.00 0.00 46 1015.1
20260504180744 77 220 0.0 0.0 0.00 0.00 0.00 53 1015.4
20260504180242 76 208 0.0 0.0 0.00 0.00 0.00 51 1015.4
20260504175739 78 256 0.0 1.0 0.00 0.00 0.00 50 1015.5
20260504175236 77 122 0.0 0.0 0.00 0.00 0.00 46 1015.4
20260504174734 77 208 0.0 0.0 0.00 0.00 0.00 50 1015.6
20260504174232 77 182 0.0 0.0 0.00 0.00 0.00 53 1015.5
20260504173727 77 270 0.0 0.0 0.00 0.00 0.00 51 1015.8
20260504173225 77 355 0.0 0.0 0.00 0.00 0.00 49 1015.8
20260504172721 75 25 1.0 2.0 0.00 0.00 0.00 50 1015.6
20260504172218 75 188 1.0 2.0 0.00 0.00 0.00 48 1015.8
20260504171714 75 220 0.0 0.0 0.00 0.00 0.00 52 1015.8
20260504171211 77 197 4.0 5.0 0.00 0.00 0.00 48 1015.9
20260504170708 76 165 0.0 0.0 0.00 0.00 0.00 50 1015.8
20260504170206 76 229 1.0 1.0 0.00 0.00 0.00 49 1016.0
20260504160124 74 351 0.0 0.0 0.00 0.00 0.00 57 1016.9
20260504151051 69 205 0.0 0.0 0.00 0.00 0.00 64 1016.9
20260504150549 67 170 0.0 0.0 0.00 0.00 0.00 66 1017.3
20260504141015 59 176 0.0 0.0 0.00 0.00 0.00 79 1017.5
20260504140511 58 151 0.0 0.0 0.00 0.00 0.00 80 1017.6
20260504130436 50 78 0.0 0.0 0.00 0.00 0.00 99 1017.9
20260504110323 42 114 0.0 0.0 0.00 0.00 0.00 99 1016.7
20260504100240 43 118 0.0 0.0 0.00 0.00 0.00 99 1016.8
20260504081634 44 117 0.0 0.0 0.00 0.00 0.00 99 1016.4
20260504081130 44 117 0.0 0.0 0.00 0.00 0.00 99 1016.4
20260504080626 44 112 0.0 0.0 0.00 0.00 0.00 99 1016.6
20260504080123 45 117 0.0 0.0 0.00 0.00 0.00 99 1016.7
20260504050439 48 118 0.0 0.0 0.00 0.00 0.00 99 1018.0
20260504045936 48 118 0.0 0.0 0.00 0.00 0.00 99 1017.9
20260504045432 48 118 0.0 0.0 0.00 0.00 0.00 99 1018.0
20260504044928 48 117 0.0 0.0 0.00 0.00 0.00 99 1018.1
20260504044426 48 116 0.0 0.0 0.00 0.00 0.00 98 1017.9
20260504043923 48 122 0.0 0.0 0.00 0.00 0.00 98 1018.0
20260504043420 48 122 0.0 0.0 0.00 0.00 0.00 98 1017.9
20260504042917 49 122 0.0 0.0 0.00 0.00 0.00 98 1018.0
20260504042414 49 123 0.0 0.0 0.00 0.00 0.00 98 1018.2
20260504041910 49 117 0.0 0.0 0.00 0.00 0.00 97 1018.2
20260504041407 49 117 0.0 0.0 0.00 0.00 0.00 97 1018.1
20260504040903 49 117 0.0 0.0 0.00 0.00 0.00 97 1018.1
20260504040400 49 117 0.0 0.0 0.00 0.00 0.00 96 1018.1
20260504035856 50 117 0.0 0.0 0.00 0.00 0.00 96 1018.1
20260504035354 50 118 0.0 0.0 0.00 0.00 0.00 95 1018.2
20260504034850 50 126 0.0 0.0 0.00 0.00 0.00 95 1018.2
20260504034348 50 120 0.0 0.0 0.00 0.00 0.00 94 1017.9
20260504033845 50 121 0.0 0.0 0.00 0.00 0.00 94 1018.4
20260504033343 50 122 0.0 0.0 0.00 0.00 0.00 93 1018.2
20260504032839 50 122 0.0 0.0 0.00 0.00 0.00 93 1018.3
20260504032336 51 122 0.0 0.0 0.00 0.00 0.00 92 1018.2
20260504031833 51 122 0.0 0.0 0.00 0.00 0.00 92 1018.4
20260504031330 51 154 0.0 0.0 0.00 0.00 0.00 91 1018.5
20260504030826 51 125 0.0 0.0 0.00 0.00 0.00 91 1018.5
20260504030324 51 127 0.0 0.0 0.00 0.00 0.00 91 1018.5
20260504025820 51 127 0.0 0.0 0.00 0.00 0.00 90 1018.3
20260504025317 52 123 0.0 0.0 0.00 0.00 0.00 90 1018.4
20260504024814 52 117 0.0 0.0 0.00 0.00 0.00 90 1018.6
20260504024310 52 122 0.0 0.0 0.00 0.00 0.00 89 1018.4
20260504023807 52 122 0.0 0.0 0.00 0.00 0.00 90 1018.4
20260504023303 53 121 0.0 0.0 0.00 0.00 0.00 90 1018.5
20260504022759 52 128 0.0 0.0 0.00 0.00 0.00 89 1018.3
20260504022256 53 134 0.0 0.0 0.00 0.00 0.00 88 1018.2
20260504021753 53 134 0.0 0.0 0.00 0.00 0.00 88 1018.0
20260504021251 53 134 0.0 0.0 0.00 0.00 0.00 87 1018.0
20260504020747 53 134 0.0 0.0 0.00 0.00 0.00 86 1018.0
20260504020243 54 134 0.0 0.0 0.00 0.00 0.00 86 1018.0
20260504015740 54 135 0.0 0.0 0.00 0.00 0.00 85 1018.1
20260504015237 54 154 0.0 0.0 0.00 0.00 0.00 83 1018.0
20260504014732 55 155 0.0 0.0 0.00 0.00 0.00 81 1017.9
20260504014229 55 155 0.0 0.0 0.00 0.00 0.00 81 1017.9
20260504013727 56 155 0.0 0.0 0.00 0.00 0.00 79 1017.8
20260504013224 56 155 0.0 0.0 0.00 0.00 0.00 78 1017.8
20260504012720 57 155 0.0 0.0 0.00 0.00 0.00 77 1017.6
20260504012219 57 155 0.0 0.0 0.00 0.00 0.00 77 1017.7
20260504011715 57 155 0.0 0.0 0.00 0.00 0.00 77 1017.7
20260504011212 58 155 0.0 0.0 0.00 0.00 0.00 77 1017.7
20260504010708 58 156 0.0 0.0 0.00 0.00 0.00 77 1017.6
20260504010204 58 153 0.0 0.0 0.00 0.00 0.00 76 1017.4
20260504005700 58 153 0.0 0.0 0.00 0.00 0.00 74 1017.5
20260504005157 59 153 0.0 0.0 0.00 0.00 0.00 72 1017.5
20260504004655 59 153 0.0 0.0 0.00 0.00 0.00 71 1017.4
20260504004152 60 154 0.0 0.0 0.00 0.00 0.00 69 1017.5
20260504003648 60 154 0.0 0.0 0.00 0.00 0.00 68 1017.4
20260504003145 61 154 0.0 0.0 0.00 0.00 0.00 68 1017.4
20260504002642 62 154 0.0 0.0 0.00 0.00 0.00 66 1017.3
20260504002139 62 154 0.0 0.0 0.00 0.00 0.00 65 1017.2
20260504001637 63 153 0.0 0.0 0.00 0.00 0.00 64 1017.3
20260504001133 63 171 0.0 0.0 0.00 0.00 0.00 63 1017.2
20260504000631 64 171 0.0 0.0 0.00 0.00 0.00 61 1017.4
20260504000128 64 171 0.0 0.0 0.00 0.00 0.00 61 1017.1
20260503235626 65 171 0.0 0.0 0.00 0.00 0.00 60 1017.4
20260503235122 66 170 0.0 0.0 0.00 0.00 0.00 56 1017.2
20260503234620 67 171 0.0 0.0 0.00 0.00 0.00 52 1017.1
20260503234118 67 171 0.0 0.0 0.00 0.00 0.00 53 1017.4
20260503233615 67 170 0.0 0.0 0.00 0.00 0.00 51 1017.3
20260503233110 68 170 0.0 0.0 0.00 0.00 0.00 49 1017.6
20260503232608 69 170 0.0 0.0 0.00 0.00 0.00 45 1017.3
20260503232105 69 170 0.0 0.0 0.00 0.00 0.00 40 1017.6